Time,TemperatureF,DewpointF,PressureIn,WindDirection,WindDirectionDegrees,WindSpeedMPH,WindSpeedGustMPH,Humidity,HourlyPrecipIn,Conditions,Clouds,dailyrainin,SoftwareType,DateUTC
2013-09-04 00:14:00,81.1,63.4,29.95,ESE,112,0.0,-999.0,55,-99.99,,,0.00,Acu-Link.com,2013-09-04 05:14:00,
2013-09-04 00:29:00,80.6,61.3,29.95,NW,315,0.0,-999.0,52,-99.99,,,0.00,Acu-Link.com,2013-09-04 05:29:00,
2013-09-04 00:44:00,81.3,61.4,29.95,SW,225,0.0,-999.0,51,-99.99,,,0.00,Acu-Link.com,2013-09-04 05:44:00,
2013-09-04 00:59:00,81.0,63.8,29.95,SSW,202,0.0,-999.0,56,-99.99,,,0.00,Acu-Link.com,2013-09-04 05:59:00,
2013-09-04 01:14:00,81.0,63.8,29.95,South,180,0.0,-999.0,56,-99.99,,,0.00,Acu-Link.com,2013-09-04 06:14:00,
2013-09-04 01:29:00,80.8,63.6,29.95,WSW,247,0.0,-999.0,56,-99.99,,,0.00,Acu-Link.com,2013-09-04 06:29:00,
2013-09-04 01:44:00,80.4,64.3,29.95,SSW,202,0.0,-999.0,58,-99.99,,,0.00,Acu-Link.com,2013-09-04 06:44:00,
2013-09-04 01:59:00,80.2,65.1,29.95,WSW,247,0.0,-999.0,60,-99.99,,,0.00,Acu-Link.com,2013-09-04 06:59:00,
2013-09-04 02:15:00,79.7,65.0,29.94,SSW,202,0.0,-999.0,61,-99.99,,,0.00,Acu-Link.com,2013-09-04 07:15:00,
2013-09-04 02:30:00,79.3,65.2,29.95,SW,225,0.0,-999.0,62,-99.99,,,0.00,Acu-Link.com,2013-09-04 07:30:00,
2013-09-04 02:45:00,79.2,65.5,29.95,SW,225,0.0,-999.0,63,-99.99,,,0.00,Acu-Link.com,2013-09-04 07:45:00,
2013-09-04 03:00:00,78.8,65.6,29.95,SW,225,0.0,-999.0,64,-99.99,,,0.00,Acu-Link.com,2013-09-04 08:00:00,
2013-09-04 03:15:00,78.8,65.6,29.95,SSW,202,1.1,-999.0,64,-99.99,,,0.00,Acu-Link.com,2013-09-04 08:15:00,
2013-09-04 03:31:00,78.6,65.4,29.95,WSW,247,0.0,-999.0,64,-99.99,,,0.00,Acu-Link.com,2013-09-04 08:31:00,
2013-09-04 03:46:00,78.3,65.5,29.96,SSW,202,0.0,-999.0,65,-99.99,,,0.00,Acu-Link.com,2013-09-04 08:46:00,
2013-09-04 04:01:00,77.5,66.1,29.96,WSW,247,0.0,-999.0,68,-99.99,,,0.00,Acu-Link.com,2013-09-04 09:01:00,
2013-09-04 04:16:00,76.8,66.3,29.95,NW,315,0.0,-999.0,70,-99.99,,,0.00,Acu-Link.com,2013-09-04 09:16:00,
2013-09-04 04:31:00,76.8,65.9,29.95,West,270,0.0,-999.0,69,-99.99,,,0.00,Acu-Link.com,2013-09-04 09:31:00,
2013-09-04 04:46:00,76.8,67.1,29.96,West,270,0.0,-999.0,72,-99.99,,,0.00,Acu-Link.com,2013-09-04 09:46:00,
2013-09-04 05:02:00,76.5,67.1,29.96,West,270,0.0,-999.0,73,-99.99,,,0.00,Acu-Link.com,2013-09-04 10:02:00,
2013-09-04 05:17:00,75.9,67.0,29.97,WSW,247,0.0,-999.0,74,-99.99,,,0.00,Acu-Link.com,2013-09-04 10:17:00,
2013-09-04 05:32:00,75.6,67.1,29.97,West,270,0.0,-999.0,75,-99.99,,,0.00,Acu-Link.com,2013-09-04 10:32:00,
2013-09-04 05:47:00,75.6,67.8,29.98,South,180,0.0,-999.0,77,-99.99,,,0.00,Acu-Link.com,2013-09-04 10:47:00,
2013-09-04 06:03:00,75.2,67.9,29.99,NW,315,0.0,-999.0,78,-99.99,,,0.00,Acu-Link.com,2013-09-04 11:03:00,
2013-09-04 06:18:00,75.2,68.2,29.99,West,270,0.0,-999.0,79,-99.99,,,0.00,Acu-Link.com,2013-09-04 11:18:00,
2013-09-04 06:33:00,74.8,67.9,29.99,ESE,112,0.0,-999.0,79,-99.99,,,0.00,Acu-Link.com,2013-09-04 11:33:00,
2013-09-04 06:49:00,75.0,68.1,30.00,ESE,112,0.0,-999.0,79,-99.99,,,0.00,Acu-Link.com,2013-09-04 11:49:00,
2013-09-04 07:04:00,75.0,68.4,30.00,ESE,112,0.0,-999.0,80,-99.99,,,0.00,Acu-Link.com,2013-09-04 12:04:00,
2013-09-04 07:19:00,75.6,68.9,30.01,SSW,202,0.0,-999.0,80,-99.99,,,0.00,Acu-Link.com,2013-09-04 12:19:00,
2013-09-04 07:34:00,75.7,69.1,30.01,ESE,112,0.0,-999.0,80,-99.99,,,0.00,Acu-Link.com,2013-09-04 12:34:00,
2013-09-04 07:50:00,77.4,69.9,30.01,SSE,157,1.1,-999.0,78,-99.99,,,0.00,Acu-Link.com,2013-09-04 12:50:00,
2013-09-04 08:05:00,78.4,70.6,30.02,WSW,247,0.0,-999.0,77,-99.99,,,0.00,Acu-Link.com,2013-09-04 13:05:00,
2013-09-04 08:20:00,80.8,70.9,30.02,ESE,112,0.0,-999.0,72,-99.99,,,0.00,Acu-Link.com,2013-09-04 13:20:00,
2013-09-04 08:35:00,81.5,71.2,30.03,West,270,0.0,-999.0,71,-99.99,,,0.00,Acu-Link.com,2013-09-04 13:35:00,
2013-09-04 08:50:00,85.1,72.4,30.03,South,180,0.0,-999.0,66,-99.99,,,0.00,Acu-Link.com,2013-09-04 13:50:00,
2013-09-04 09:06:00,89.2,72.5,30.03,SSW,202,0.0,-999.0,58,-99.99,,,0.00,Acu-Link.com,2013-09-04 14:06:00,
2013-09-04 09:21:00,89.4,72.7,30.03,SW,225,1.6,-999.0,58,-99.99,,,0.00,Acu-Link.com,2013-09-04 14:21:00,
2013-09-04 09:36:00,87.8,72.2,30.04,South,180,1.6,-999.0,60,-99.99,,,0.00,Acu-Link.com,2013-09-04 14:36:00,
2013-09-04 09:51:00,89.4,71.6,30.04,SE,135,3.1,-999.0,56,-99.99,,,0.00,Acu-Link.com,2013-09-04 14:51:00,
2013-09-04 10:06:00,88.7,72.0,30.04,ESE,112,3.8,-999.0,58,-99.99,,,0.00,Acu-Link.com,2013-09-04 15:06:00,
2013-09-04 10:21:00,91.2,72.2,30.04,SE,135,0.0,-999.0,54,-99.99,,,0.00,Acu-Link.com,2013-09-04 15:21:00,
2013-09-04 10:36:00,91.0,72.0,30.04,East,90,3.1,-999.0,54,-99.99,,,0.00,Acu-Link.com,2013-09-04 15:36:00,
2013-09-04 10:51:00,92.5,72.8,30.04,ESE,112,5.1,-999.0,53,-99.99,,,0.00,Acu-Link.com,2013-09-04 15:51:00,
2013-09-04 11:06:00,93.2,72.9,30.05,SSE,157,1.6,-999.0,52,-99.99,,,0.00,Acu-Link.com,2013-09-04 16:06:00,
2013-09-04 11:22:00,94.1,73.2,30.05,SSW,202,2.2,-999.0,51,-99.99,,,0.00,Acu-Link.com,2013-09-04 16:22:00,
2013-09-04 11:37:00,94.8,72.6,30.05,South,180,2.7,-999.0,49,-99.99,,,0.00,Acu-Link.com,2013-09-04 16:37:00,
2013-09-04 11:52:00,95.4,73.1,30.05,SSW,202,3.1,-999.0,49,-99.99,,,0.00,Acu-Link.com,2013-09-04 16:52:00,
2013-09-04 12:07:00,94.1,72.6,30.04,ESE,112,3.1,-999.0,50,-99.99,,,0.00,Acu-Link.com,2013-09-04 17:07:00,
2013-09-04 12:22:00,95.2,73.0,30.05,SSE,157,4.3,-999.0,49,-99.99,,,0.00,Acu-Link.com,2013-09-04 17:22:00,
2013-09-04 12:37:00,95.4,73.1,30.04,NNE,22,1.6,-999.0,49,-99.99,,,0.00,Acu-Link.com,2013-09-04 17:37:00,
2013-09-04 12:52:00,97.0,72.7,30.04,West,270,2.2,-999.0,46,-99.99,,,0.00,Acu-Link.com,2013-09-04 17:52:00,
2013-09-04 13:07:00,97.5,71.2,30.04,East,90,4.3,-999.0,43,-99.99,,,0.00,Acu-Link.com,2013-09-04 18:07:00,
2013-09-04 13:22:00,95.9,71.1,30.03,NNE,22,0.0,-999.0,45,-99.99,,,0.00,Acu-Link.com,2013-09-04 18:22:00,
2013-09-04 13:37:00,98.2,71.8,30.02,ESE,112,6.7,-999.0,43,-99.99,,,0.00,Acu-Link.com,2013-09-04 18:37:00,
2013-09-04 13:52:00,98.2,69.0,30.02,NNE,22,2.7,-999.0,39,-99.99,,,0.00,Acu-Link.com,2013-09-04 18:52:00,
2013-09-04 14:07:00,99.9,71.2,30.02,South,180,1.6,-999.0,40,-99.99,,,0.00,Acu-Link.com,2013-09-04 19:07:00,
2013-09-04 14:22:00,100.8,68.0,30.02,SE,135,4.3,-999.0,35,-99.99,,,0.00,Acu-Link.com,2013-09-04 19:22:00,
2013-09-04 14:37:00,99.1,66.6,30.01,ESE,112,2.2,-999.0,35,-99.99,,,0.00,Acu-Link.com,2013-09-04 19:37:00,
2013-09-04 14:52:00,101.1,67.5,30.00,East,90,2.2,-999.0,34,-99.99,,,0.00,Acu-Link.com,2013-09-04 19:52:00,
2013-09-04 15:08:00,102.6,67.9,30.00,NNW,337,3.8,-999.0,33,-99.99,,,0.00,Acu-Link.com,2013-09-04 20:08:00,
2013-09-04 15:23:00,100.6,66.2,29.99,SSE,157,3.1,-999.0,33,-99.99,,,0.00,Acu-Link.com,2013-09-04 20:23:00,
2013-09-04 15:38:00,100.9,64.7,29.98,SSE,157,1.6,-999.0,31,-99.99,,,0.00,Acu-Link.com,2013-09-04 20:38:00,
2013-09-04 15:53:00,102.0,64.7,29.98,SSW,202,0.0,-999.0,30,-99.99,,,0.00,Acu-Link.com,2013-09-04 20:53:00,
2013-09-04 16:08:00,101.3,65.0,29.97,South,180,0.0,-999.0,31,-99.99,,,0.00,Acu-Link.com,2013-09-04 21:08:00,
2013-09-04 16:23:00,101.1,64.8,29.97,SW,225,2.2,-999.0,31,-99.99,,,0.00,Acu-Link.com,2013-09-04 21:23:00,
2013-09-04 16:38:00,99.9,64.7,29.96,SSW,202,0.0,-999.0,32,-99.99,,,0.00,Acu-Link.com,2013-09-04 21:38:00,
2013-09-04 16:53:00,101.8,67.3,29.96,SE,135,1.1,-999.0,33,-99.99,,,0.00,Acu-Link.com,2013-09-04 21:53:00,
2013-09-04 17:09:00,104.5,67.8,29.96,SSW,202,0.0,-999.0,31,-99.99,,,0.00,Acu-Link.com,2013-09-04 22:09:00,
2013-09-04 17:24:00,100.0,65.7,29.96,WNW,292,2.2,-999.0,33,-99.99,,,0.00,Acu-Link.com,2013-09-04 22:24:00,
2013-09-04 17:39:00,99.7,64.5,29.95,SSE,157,2.2,-999.0,32,-99.99,,,0.00,Acu-Link.com,2013-09-04 22:39:00,
2013-09-04 17:54:00,101.7,65.3,29.96,ENE,67,1.6,-999.0,31,-99.99,,,0.00,Acu-Link.com,2013-09-04 22:54:00,
2013-09-04 18:09:00,103.1,65.6,29.95,ENE,67,2.7,-999.0,30,-99.99,,,0.00,Acu-Link.com,2013-09-04 23:09:00,
2013-09-04 18:24:00,101.1,65.7,29.95,SW,225,2.7,-999.0,32,-99.99,,,0.00,Acu-Link.com,2013-09-04 23:24:00,
2013-09-04 18:39:00,99.7,65.4,29.95,West,270,1.1,-999.0,33,-99.99,,,0.00,Acu-Link.com,2013-09-04 23:39:00,
2013-09-04 18:54:00,99.0,65.6,29.95,SE,135,2.2,-999.0,34,-99.99,,,0.00,Acu-Link.com,2013-09-04 23:54:00,
2013-09-04 19:09:00,97.7,66.2,29.95,West,270,2.7,-999.0,36,-99.99,,,0.00,Acu-Link.com,2013-09-05 00:09:00,
2013-09-04 19:24:00,96.8,65.4,29.96,SE,135,3.8,-999.0,36,-99.99,,,0.00,Acu-Link.com,2013-09-05 00:24:00,
2013-09-04 19:39:00,95.4,65.7,29.96,South,180,1.6,-999.0,38,-99.99,,,0.00,Acu-Link.com,2013-09-05 00:39:00,
2013-09-04 19:54:00,94.3,65.5,29.96,West,270,2.2,-999.0,39,-99.99,,,0.00,Acu-Link.com,2013-09-05 00:54:00,
2013-09-04 20:09:00,93.6,65.6,29.97,SSW,202,3.8,-999.0,40,-99.99,,,0.00,Acu-Link.com,2013-09-05 01:09:00,
2013-09-04 20:25:00,93.0,65.8,29.97,East,90,1.1,-999.0,41,-99.99,,,0.00,Acu-Link.com,2013-09-05 01:25:00,
2013-09-04 20:40:00,92.3,65.8,29.99,SSE,157,1.6,-999.0,42,-99.99,,,0.00,Acu-Link.com,2013-09-05 01:40:00,
2013-09-04 20:55:00,91.9,66.2,29.99,SSE,157,1.1,-999.0,43,-99.99,,,0.00,Acu-Link.com,2013-09-05 01:55:00,
2013-09-04 21:10:00,91.6,66.5,30.00,NE,45,3.1,-999.0,44,-99.99,,,0.00,Acu-Link.com,2013-09-05 02:10:00,
2013-09-04 21:25:00,91.2,66.2,30.00,ESE,112,1.6,-999.0,44,-99.99,,,0.00,Acu-Link.com,2013-09-05 02:25:00,
2013-09-04 21:40:00,91.2,66.2,30.02,NE,45,3.1,-999.0,44,-99.99,,,0.00,Acu-Link.com,2013-09-05 02:40:00,
2013-09-04 21:55:00,90.9,66.5,30.03,ESE,112,3.8,-999.0,45,-99.99,,,0.00,Acu-Link.com,2013-09-05 02:55:00,
2013-09-04 22:10:00,90.3,66.1,30.03,NE,45,0.0,-999.0,45,-99.99,,,0.00,Acu-Link.com,2013-09-05 03:10:00,
2013-09-04 22:25:00,90.1,66.5,30.02,SE,135,3.8,-999.0,46,-99.99,,,0.00,Acu-Link.com,2013-09-05 03:25:00,
2013-09-04 22:40:00,89.4,66.5,30.03,East,90,3.1,-999.0,47,-99.99,,,0.00,Acu-Link.com,2013-09-05 03:40:00,
2013-09-04 22:55:00,88.9,66.6,30.04,ESE,112,3.1,-999.0,48,-99.99,,,0.00,Acu-Link.com,2013-09-05 03:55:00,
2013-09-04 23:10:00,88.7,67.0,30.04,ESE,112,4.3,-999.0,49,-99.99,,,0.00,Acu-Link.com,2013-09-05 04:10:00,
2013-09-04 23:25:00,88.2,67.1,30.04,ESE,112,2.2,-999.0,50,-99.99,,,0.00,Acu-Link.com,2013-09-05 04:25:00,
2013-09-04 23:40:00,87.8,67.4,30.04,SW,225,2.2,-999.0,51,-99.99,,,0.00,Acu-Link.com,2013-09-05 04:40:00,
2013-09-04 23:55:00,87.3,68.0,30.05,ESE,112,2.7,-999.0,53,-99.99,,,0.00,Acu-Link.com,2013-09-05 04:55:00,